Location: Newark
(39.0622°N, 106.5590°E)
Time: 00:57:19
(UTC+00:00)

Courier 1B - Pass Details

Date: 26 January 2020
Orbit: 962 x 1209 km, 28.3° (Epoch: 20 February)

Event Time Altitude Azimuth Distance (km) Brightness Sun altitude
Rises 18:25:04 0° 223° (SW) 3,761 - -63.4°
Reaches altitude 10° 18:28:18 10° 209° (SSW) 2,852 - -63.0°
Maximum altitude 18:33:34 23° 160° (SSE) 2,123 - -62.2°
Drops below altitude 10° 18:39:03 10° 111° (ESE) 2,998 - -61.4°
Sets 18:42:33 0° 98° (E) 4,001 - -60.9°
